| time (UTC) | temp F | wind direction | speed knots | gust knots | rain 1hr in | rain 24hr in | rain mn in | humidity % | barometer mb |
| 20260509032514 | 60 | 191 | 0.0 | 0.0 | 0.00 | 0.00 | 0.00 | 79 | 1014.7 |
| 20260509032030 | 60 | 191 | 0.0 | 0.0 | 0.00 | 0.00 | 0.00 | 78 | 1014.7 |
| 20260509031526 | 60 | 191 | 0.0 | 0.0 | 0.00 | 0.00 | 0.00 | 78 | 1014.6 |
| 20260509031019 | 60 | 191 | 0.0 | 0.0 | 0.00 | 0.00 | 0.00 | 78 | 1014.6 |
| 20260509030515 | 61 | 191 | 0.0 | 0.0 | 0.00 | 0.00 | 0.00 | 77 | 1014.6 |
| 20260509030028 | 61 | 191 | 0.0 | 0.0 | 0.00 | 0.00 | 0.00 | 77 | 1014.6 |
| 20260509025524 | 61 | 191 | 0.0 | 0.0 | 0.00 | 0.00 | 0.00 | 76 | 1014.6 |
| 20260509025023 | 61 | 191 | 0.0 | 0.0 | 0.00 | 0.00 | 0.00 | 76 | 1014.5 |
| 20260509024520 | 62 | 191 | 0.0 | 0.0 | 0.00 | 0.00 | 0.00 | 76 | 1014.6 |
| 20260509024016 | 62 | 191 | 0.0 | 0.0 | 0.00 | 0.00 | 0.00 | 75 | 1014.5 |
| 20260509023532 | 62 | 191 | 0.0 | 0.0 | 0.00 | 0.00 | 0.00 | 75 | 1014.5 |
| 20260509023025 | 62 | 191 | 0.0 | 0.0 | 0.00 | 0.00 | 0.00 | 73 | 1014.4 |
| 20260509022520 | 62 | 187 | 0.0 | 0.0 | 0.00 | 0.00 | 0.00 | 74 | 1014.5 |
| 20260509022016 | 62 | 188 | 0.0 | 0.0 | 0.00 | 0.00 | 0.00 | 74 | 1014.6 |
| 20260509021516 | 62 | 183 | 0.0 | 0.0 | 0.00 | 0.00 | 0.00 | 75 | 1014.7 |
| 20260509021032 | 62 | 182 | 0.0 | 0.0 | 0.00 | 0.00 | 0.00 | 75 | 1014.7 |
| 20260509020525 | 63 | 183 | 0.0 | 0.0 | 0.00 | 0.00 | 0.00 | 74 | 1014.6 |
| 20260509020020 | 63 | 182 | 0.0 | 0.0 | 0.00 | 0.00 | 0.00 | 74 | 1014.7 |
| 20260509015516 | 63 | 192 | 0.0 | 0.0 | 0.00 | 0.00 | 0.00 | 73 | 1014.7 |
| 20260509015012 | 63 | 207 | 0.0 | 0.0 | 0.00 | 0.00 | 0.00 | 72 | 1014.7 |
| 20260509014528 | 63 | 190 | 0.0 | 0.0 | 0.00 | 0.00 | 0.00 | 72 | 1014.5 |
| 20260509014028 | 63 | 191 | 0.0 | 0.0 | 0.00 | 0.00 | 0.00 | 72 | 1014.5 |
| 20260509013524 | 63 | 181 | 0.0 | 0.0 | 0.00 | 0.00 | 0.00 | 73 | 1014.6 |
| 20260509013020 | 63 | 167 | 0.0 | 0.0 | 0.00 | 0.00 | 0.00 | 72 | 1014.5 |
| 20260509012513 | 63 | 194 | 0.0 | 0.0 | 0.00 | 0.00 | 0.00 | 73 | 1014.3 |
| 20260509012029 | 63 | 189 | 0.0 | 0.0 | 0.00 | 0.00 | 0.00 | 73 | 1014.3 |
| 20260509011525 | 64 | 217 | 0.0 | 0.0 | 0.00 | 0.00 | 0.00 | 72 | 1014.3 |
| 20260509011021 | 64 | 217 | 0.0 | 0.0 | 0.00 | 0.00 | 0.00 | 71 | 1014.3 |
| 20260509010522 | 64 | 195 | 0.0 | 0.0 | 0.00 | 0.00 | 0.00 | 70 | 1014.1 |
| 20260509010019 | 64 | 196 | 0.0 | 0.0 | 0.00 | 0.00 | 0.00 | 71 | 1014.1 |
| 20260509005514 | 64 | 180 | 0.0 | 0.0 | 0.00 | 0.00 | 0.00 | 69 | 1014.1 |
| 20260509005030 | 64 | 194 | 0.0 | 0.0 | 0.00 | 0.00 | 0.00 | 69 | 1014.1 |
| 20260509004524 | 64 | 194 | 0.0 | 0.0 | 0.00 | 0.00 | 0.00 | 69 | 1014.3 |
| 20260509004019 | 64 | 195 | 0.0 | 0.0 | 0.00 | 0.00 | 0.00 | 68 | 1014.2 |
| 20260509003515 | 64 | 188 | 0.0 | 0.0 | 0.00 | 0.00 | 0.00 | 68 | 1014.1 |
| 20260509003015 | 65 | 195 | 0.0 | 0.0 | 0.00 | 0.00 | 0.00 | 68 | 1014.2 |
| 20260509002511 | 65 | 197 | 0.0 | 0.0 | 0.00 | 0.00 | 0.00 | 67 | 1014.1 |
| 20260509002027 | 65 | 221 | 0.0 | 0.0 | 0.00 | 0.00 | 0.00 | 67 | 1014.1 |
| 20260509001524 | 65 | 192 | 0.0 | 0.0 | 0.00 | 0.00 | 0.00 | 67 | 1014.0 |
| 20260509001020 | 65 | 190 | 0.0 | 0.0 | 0.00 | 0.00 | 0.00 | 66 | 1013.9 |
| 20260509000516 | 65 | 200 | 0.0 | 0.0 | 0.00 | 0.00 | 0.00 | 65 | 1013.9 |
| 20260509000013 | 65 | 184 | 0.0 | 0.0 | 0.00 | 0.00 | 0.00 | 65 | 1013.8 |
| 20260508235513 | 66 | 186 | 0.0 | 0.0 | 0.00 | 0.00 | 0.00 | 64 | 1013.8 |
| 20260508235029 | 66 | 191 | 0.0 | 0.0 | 0.00 | 0.00 | 0.00 | 64 | 1013.7 |
| 20260508234522 | 66 | 157 | 0.0 | 0.0 | 0.00 | 0.00 | 0.00 | 63 | 1013.8 |
| 20260508234018 | 66 | 196 | 0.0 | 0.0 | 0.00 | 0.00 | 0.00 | 64 | 1013.8 |
| 20260508233511 | 66 | 196 | 0.0 | 0.0 | 0.00 | 0.00 | 0.00 | 62 | 1013.9 |
| 20260508233027 | 66 | 180 | 0.0 | 0.0 | 0.00 | 0.00 | 0.00 | 62 | 1013.9 |
| 20260508232523 | 66 | 178 | 0.0 | 0.0 | 0.00 | 0.00 | 0.00 | 62 | 1013.9 |
| 20260508232019 | 67 | 167 | 0.0 | 0.9 | 0.00 | 0.00 | 0.00 | 61 | 1013.9 |
| 20260508231520 | 67 | 196 | 0.0 | 0.9 | 0.00 | 0.00 | 0.00 | 61 | 1013.8 |
| 20260508231017 | 67 | 178 | 0.0 | 0.0 | 0.00 | 0.00 | 0.00 | 60 | 1013.7 |
| 20260508230511 | 67 | 178 | 0.0 | 0.0 | 0.00 | 0.00 | 0.00 | 60 | 1013.7 |
| 20260508230028 | 67 | 186 | 0.0 | 0.0 | 0.00 | 0.00 | 0.00 | 60 | 1013.8 |
| 20260508225524 | 67 | 178 | 0.0 | 0.0 | 0.00 | 0.00 | 0.00 | 59 | 1013.8 |
| 20260508225020 | 67 | 178 | 0.0 | 0.0 | 0.00 | 0.00 | 0.00 | 59 | 1013.7 |
| 20260508224516 | 67 | 196 | 0.0 | 0.0 | 0.00 | 0.00 | 0.00 | 58 | 1013.8 |
| 20260508224014 | 67 | 195 | 0.0 | 0.0 | 0.00 | 0.00 | 0.00 | 58 | 1014.0 |
| 20260508223511 | 68 | 188 | 0.0 | 0.9 | 0.00 | 0.00 | 0.00 | 57 | 1014.0 |
| 20260508223027 | 68 | 201 | 0.0 | 0.9 | 0.00 | 0.00 | 0.00 | 57 | 1013.9 |
| 20260508222523 | 68 | 189 | 0.0 | 0.0 | 0.00 | 0.00 | 0.00 | 57 | 1013.9 |
| 20260508222015 | 68 | 178 | 0.0 | 0.0 | 0.00 | 0.00 | 0.00 | 57 | 1013.8 |
| 20260508221512 | 68 | 165 | 0.0 | 0.0 | 0.00 | 0.00 | 0.00 | 56 | 1013.7 |
| 20260508221027 | 68 | 198 | 0.0 | 0.0 | 0.00 | 0.00 | 0.00 | 57 | 1013.8 |
| 20260508220527 | 68 | 171 | 0.0 | 0.0 | 0.00 | 0.00 | 0.00 | 55 | 1013.7 |
| 20260508220025 | 68 | 167 | 0.0 | 0.9 | 0.00 | 0.00 | 0.00 | 55 | 1013.7 |
| 20260508215517 | 68 | 189 | 0.0 | 0.9 | 0.00 | 0.00 | 0.00 | 55 | 1013.7 |
| 20260508215030 | 68 | 188 | 0.0 | 0.0 | 0.00 | 0.00 | 0.00 | 54 | 1013.7 |
| 20260508214527 | 68 | 184 | 0.0 | 0.0 | 0.00 | 0.00 | 0.00 | 55 | 1013.8 |
| 20260508214023 | 68 | 226 | 0.0 | 0.0 | 0.00 | 0.00 | 0.00 | 55 | 1013.9 |
| 20260508213520 | 69 | 248 | 0.0 | 0.0 | 0.00 | 0.00 | 0.00 | 54 | 1013.9 |
| 20260508213020 | 68 | 159 | 0.0 | 0.0 | 0.00 | 0.00 | 0.00 | 54 | 1013.9 |
| 20260508212513 | 69 | 197 | 0.0 | 0.0 | 0.00 | 0.00 | 0.00 | 53 | 1013.9 |
| 20260508212029 | 69 | 187 | 0.0 | 0.0 | 0.00 | 0.00 | 0.00 | 54 | 1013.9 |
| 20260508211522 | 69 | 227 | 0.0 | 0.0 | 0.00 | 0.00 | 0.00 | 54 | 1013.9 |
| 20260508211016 | 69 | 189 | 0.0 | 0.9 | 0.00 | 0.00 | 0.00 | 53 | 1013.8 |
| 20260508210512 | 69 | 200 | 0.0 | 0.9 | 0.00 | 0.00 | 0.00 | 54 | 1013.7 |
| 20260508210030 | 69 | 171 | 0.0 | 0.0 | 0.00 | 0.00 | 0.00 | 53 | 1013.8 |
| 20260508205525 | 69 | 175 | 0.0 | 0.0 | 0.00 | 0.00 | 0.00 | 55 | 1013.8 |
| 20260508205025 | 69 | 186 | 0.0 | 0.0 | 0.00 | 0.00 | 0.00 | 53 | 1013.8 |
| 20260508204521 | 69 | 173 | 0.0 | 0.9 | 0.00 | 0.00 | 0.00 | 52 | 1013.8 |
| 20260508204017 | 69 | 246 | 0.0 | 0.9 | 0.00 | 0.00 | 0.00 | 53 | 1013.7 |
| 20260508203513 | 69 | 171 | 0.0 | 0.0 | 0.00 | 0.00 | 0.00 | 54 | 1013.9 |
| 20260508203030 | 69 | 190 | 0.0 | 9.6 | 0.00 | 0.00 | 0.00 | 53 | 1013.9 |
| 20260508202526 | 69 | 200 | 0.0 | 9.6 | 0.00 | 0.00 | 0.00 | 52 | 1014.1 |
| 20260508202022 | 70 | 174 | 4.3 | 10.4 | 0.00 | 0.00 | 0.00 | 51 | 1014.1 |
| 20260508201519 | 70 | 192 | 0.9 | 7.8 | 0.00 | 0.00 | 0.00 | 52 | 1014.2 |
| 20260508201015 | 70 | 200 | 2.6 | 7.8 | 0.00 | 0.00 | 0.00 | 51 | 1014.3 |
| 20260508200527 | 70 | 243 | 0.9 | 7.8 | 0.00 | 0.00 | 0.00 | 52 | 1014.3 |
| 20260508200026 | 70 | 174 | 0.0 | 7.0 | 0.00 | 0.00 | 0.00 | 51 | 1014.4 |
| 20260508195522 | 70 | 159 | 1.7 | 6.1 | 0.00 | 0.00 | 0.00 | 51 | 1014.4 |
| 20260508195015 | 70 | 180 | 0.0 | 0.0 | 0.00 | 0.00 | 0.00 | 51 | 1014.5 |
| 20260508194510 | 70 | 229 | 0.0 | 2.6 | 0.00 | 0.00 | 0.00 | 49 | 1014.6 |
| 20260508194030 | 70 | 198 | 0.0 | 2.6 | 0.00 | 0.00 | 0.00 | 51 | 1014.6 |
| 20260508193526 | 70 | 88 | 0.0 | 8.7 | 0.00 | 0.00 | 0.00 | 52 | 1014.7 |
| 20260508193022 | 69 | 208 | 0.9 | 10.4 | 0.00 | 0.00 | 0.00 | 50 | 1014.9 |
| 20260508192519 | 70 | 194 | 2.6 | 7.8 | 0.00 | 0.00 | 0.00 | 51 | 1015.0 |
| 20260508192013 | 69 | 174 | 0.0 | 0.0 | 0.00 | 0.00 | 0.00 | 52 | 1014.9 |
| 20260508191528 | 69 | 170 | 0.0 | 0.0 | 0.00 | 0.00 | 0.00 | 50 | 1015.0 |
| 20260508191025 | 69 | 167 | 0.0 | 0.0 | 0.00 | 0.00 | 0.00 | 52 | 1015.0 |
| 20260508190526 | 70 | 157 | 0.0 | 0.0 | 0.00 | 0.00 | 0.00 | 51 | 1015.1 |
| 20260508190022 | 69 | 177 | 0.0 | 0.0 | 0.00 | 0.00 | 0.00 | 53 | 1015.3 |
| 20260508185516 | 69 | 191 | 0.0 | 0.0 | 0.00 | 0.00 | 0.00 | 56 | 1015.3 |
| 20260508185012 | 69 | 198 | 0.0 | 0.0 | 0.00 | 0.00 | 0.00 | 54 | 1015.4 |
| 20260508184529 | 68 | 101 | 0.0 | 0.0 | 0.00 | 0.00 | 0.00 | 54 | 1015.6 |
| 20260508184025 | 68 | 229 | 0.0 | 0.0 | 0.00 | 0.00 | 0.00 | 55 | 1015.6 |
| 20260508183522 | 68 | 211 | 0.0 | 0.0 | 0.00 | 0.00 | 0.00 | 53 | 1015.8 |
| 20260508183024 | 68 | 102 | 0.0 | 0.0 | 0.00 | 0.00 | 0.00 | 54 | 1015.9 |
| 20260508182520 | 68 | 184 | 0.0 | 0.9 | 0.00 | 0.00 | 0.00 | 54 | 1015.9 |
| 20260508182017 | 68 | 124 | 0.0 | 0.9 | 0.00 | 0.00 | 0.00 | 54 | 1015.8 |
| 20260508181513 | 68 | 188 | 0.0 | 0.0 | 0.00 | 0.00 | 0.00 | 55 | 1016.1 |
| 20260508181029 | 69 | 206 | 0.0 | 0.0 | 0.00 | 0.00 | 0.00 | 54 | 1016.0 |
| 20260508180525 | 68 | 5 | 0.0 | 0.0 | 0.00 | 0.00 | 0.00 | 56 | 1016.1 |
| 20260508180020 | 68 | 215 | 0.0 | 0.0 | 0.00 | 0.00 | 0.00 | 53 | 1016.0 |
| 20260508175520 | 68 | 236 | 0.0 | 0.0 | 0.00 | 0.00 | 0.00 | 53 | 1016.2 |
| 20260508175013 | 67 | 242 | 0.0 | 0.0 | 0.00 | 0.00 | 0.00 | 55 | 1016.2 |
| 20260508174530 | 68 | 197 | 0.0 | 0.0 | 0.00 | 0.00 | 0.00 | 55 | 1016.2 |
| 20260508174023 | 68 | 206 | 0.0 | 0.0 | 0.00 | 0.00 | 0.00 | 56 | 1016.2 |
| 20260508173519 | 67 | 181 | 0.0 | 0.0 | 0.00 | 0.00 | 0.00 | 57 | 1016.5 |
| 20260508173015 | 67 | 58 | 0.0 | 0.0 | 0.00 | 0.00 | 0.00 | 59 | 1016.3 |
| 20260508172510 | 67 | 94 | 0.0 | 0.0 | 0.00 | 0.00 | 0.00 | 55 | 1016.4 |
| 20260508172010 | 68 | 104 | 0.0 | 0.0 | 0.00 | 0.00 | 0.00 | 57 | 1016.6 |
| 20260508171526 | 68 | 84 | 0.0 | 0.0 | 0.00 | 0.00 | 0.00 | 54 | 1016.8 |
| 20260508171023 | 68 | 153 | 0.0 | 0.9 | 0.00 | 0.00 | 0.00 | 55 | 1016.9 |
| 20260508170519 | 68 | 67 | 0.0 | 0.0 | 0.00 | 0.00 | 0.00 | 58 | 1016.8 |
| 20260508170016 | 67 | 297 | 0.0 | 0.0 | 0.00 | 0.00 | 0.00 | 55 | 1016.8 |
| 20260508165512 | 66 | 190 | 0.0 | 0.0 | 0.00 | 0.00 | 0.00 | 58 | 1016.9 |
| 20260508165028 | 66 | 221 | 0.0 | 0.0 | 0.00 | 0.00 | 0.00 | 54 | 1017.0 |
| 20260508164524 | 66 | 159 | 0.0 | 0.0 | 0.00 | 0.00 | 0.00 | 56 | 1017.1 |
| 20260508164024 | 66 | 88 | 0.0 | 0.0 | 0.00 | 0.00 | 0.00 | 56 | 1017.2 |
| 20260508163521 | 66 | 196 | 0.0 | 0.0 | 0.00 | 0.00 | 0.00 | 56 | 1017.3 |
| 20260508163017 | 67 | 184 | 0.0 | 0.0 | 0.00 | 0.00 | 0.00 | 55 | 1017.3 |
| 20260508162530 | 67 | 159 | 0.0 | 0.0 | 0.00 | 0.00 | 0.00 | 56 | 1017.4 |
| 20260508162027 | 67 | 120 | 0.0 | 0.0 | 0.00 | 0.00 | 0.00 | 58 | 1017.4 |
| 20260508161523 | 67 | 5 | 0.0 | 0.0 | 0.00 | 0.00 | 0.00 | 56 | 1017.3 |
| 20260508161016 | 67 | 205 | 0.0 | 0.0 | 0.00 | 0.00 | 0.00 | 55 | 1017.4 |
| 20260508160516 | 67 | 190 | 0.0 | 0.0 | 0.00 | 0.00 | 0.00 | 57 | 1017.7 |
| 20260508160012 | 67 | 204 | 0.0 | 0.0 | 0.00 | 0.00 | 0.00 | 55 | 1017.7 |
| 20260508155528 | 67 | 200 | 0.0 | 0.0 | 0.00 | 0.00 | 0.00 | 60 | 1017.7 |
| 20260508155024 | 66 | 158 | 0.0 | 0.0 | 0.00 | 0.00 | 0.00 | 55 | 1017.7 |
| 20260508154520 | 67 | 177 | 0.0 | 0.0 | 0.00 | 0.00 | 0.00 | 56 | 1018.0 |
| 20260508154016 | 66 | 17 | 0.0 | 0.0 | 0.00 | 0.00 | 0.00 | 59 | 1018.0 |
| 20260508153514 | 66 | 201 | 0.0 | 0.0 | 0.00 | 0.00 | 0.00 | 58 | 1018.0 |
| 20260508153015 | 65 | 198 | 0.0 | 6.1 | 0.00 | 0.00 | 0.00 | 58 | 1018.0 |
| 20260508152511 | 65 | 225 | 0.9 | 6.1 | 0.00 | 0.00 | 0.00 | 58 | 1018.0 |
| 20260508152028 | 66 | 61 | 0.0 | 7.0 | 0.00 | 0.00 | 0.00 | 60 | 1018.0 |
| 20260508151523 | 65 | 285 | 0.0 | 7.0 | 0.00 | 0.00 | 0.00 | 61 | 1018.0 |
| 20260508151019 | 66 | 194 | 0.9 | 4.3 | 0.00 | 0.00 | 0.00 | 57 | 1017.9 |
| 20260508150515 | 66 | 30 | 0.0 | 7.0 | 0.00 | 0.00 | 0.00 | 58 | 1017.9 |
| 20260508150012 | 65 | 40 | 1.7 | 7.0 | 0.00 | 0.00 | 0.00 | 59 | 1018.0 |
| 20260508145511 | 65 | 34 | 1.7 | 4.3 | 0.00 | 0.00 | 0.00 | 58 | 1017.9 |
| 20260508145027 | 65 | 186 | 0.9 | 4.3 | 0.00 | 0.00 | 0.00 | 57 | 1017.9 |
| 20260508144524 | 65 | 49 | 2.6 | 4.3 | 0.00 | 0.00 | 0.00 | 56 | 1017.8 |
| 20260508144016 | 65 | 316 | 0.0 | 6.1 | 0.00 | 0.00 | 0.00 | 59 | 1017.8 |
| 20260508143513 | 65 | 76 | 0.0 | 7.0 | 0.00 | 0.00 | 0.00 | 57 | 1017.9 |
| 20260508143031 | 65 | 107 | 2.6 | 7.0 | 0.00 | 0.00 | 0.00 | 57 | 1017.9 |
| 20260508142527 | 65 | 78 | 0.0 | 0.9 | 0.00 | 0.00 | 0.00 | 59 | 1018.0 |
| 20260508142025 | 64 | 59 | 0.0 | 2.6 | 0.00 | 0.00 | 0.00 | 59 | 1018.0 |
| 20260508141522 | 64 | 48 | 0.0 | 7.0 | 0.00 | 0.00 | 0.00 | 59 | 1018.1 |
| 20260508141019 | 64 | 69 | 0.9 | 7.0 | 0.00 | 0.00 | 0.00 | 59 | 1018.1 |
| 20260508140511 | 64 | 67 | 1.7 | 7.0 | 0.00 | 0.00 | 0.00 | 60 | 1018.1 |
| 20260508140027 | 64 | 84 | 0.0 | 0.9 | 0.00 | 0.00 | 0.00 | 61 | 1018.3 |
| 20260508135521 | 63 | 92 | 0.0 | 0.0 | 0.00 | 0.08 | 0.00 | 63 | 1018.3 |
| 20260508135011 | 63 | 61 | 0.0 | 0.0 | 0.00 | 0.08 | 0.00 | 64 | 1018.3 |
| 20260508134511 | 63 | 60 | 0.0 | 0.0 | 0.00 | 0.08 | 0.00 | 66 | 1018.4 |
| 20260508134028 | 62 | 59 | 0.0 | 0.0 | 0.00 | 0.08 | 0.00 | 65 | 1018.3 |
| 20260508133520 | 62 | 36 | 0.0 | 0.0 | 0.00 | 0.08 | 0.00 | 66 | 1018.3 |
| 20260508133015 | 61 | 100 | 0.0 | 0.0 | 0.00 | 0.08 | 0.00 | 69 | 1018.3 |
| 20260508132511 | 61 | 48 | 0.0 | 0.0 | 0.00 | 0.08 | 0.00 | 70 | 1018.2 |
| 20260508132026 | 60 | 46 | 0.0 | 0.0 | 0.00 | 0.08 | 0.00 | 69 | 1018.1 |
| 20260508131522 | 60 | 19 | 0.0 | 0.0 | 0.00 | 0.08 | 0.00 | 71 | 1018.0 |
| 20260508131016 | 59 | 69 | 0.0 | 0.0 | 0.00 | 0.08 | 0.00 | 74 | 1018.0 |
| 20260508130516 | 59 | 37 | 0.0 | 0.0 | 0.00 | 0.08 | 0.00 | 74 | 1017.9 |
| 20260508130014 | 58 | 54 | 0.0 | 0.0 | 0.00 | 0.08 | 0.00 | 76 | 1017.9 |
| 20260508125526 | 58 | 68 | 0.0 | 0.0 | 0.00 | 0.09 | 0.00 | 78 | 1017.7 |
| 20260508125021 | 57 | 26 | 0.0 | 0.0 | 0.00 | 0.09 | 0.00 | 79 | 1017.8 |
| 20260508124517 | 57 | 29 | 0.0 | 0.0 | 0.00 | 0.09 | 0.00 | 79 | 1017.7 |
| 20260508124013 | 56 | 25 | 0.0 | 0.0 | 0.00 | 0.09 | 0.00 | 80 | 1017.8 |
| 20260508123530 | 56 | 29 | 0.0 | 0.0 | 0.00 | 0.09 | 0.00 | 81 | 1017.8 |
| 20260508123027 | 56 | 33 | 0.0 | 0.0 | 0.00 | 0.09 | 0.00 | 81 | 1017.9 |
| 20260508122523 | 55 | 33 | 0.0 | 0.0 | 0.00 | 0.09 | 0.00 | 81 | 1017.7 |
| 20260508122019 | 55 | 38 | 0.0 | 0.0 | 0.00 | 0.09 | 0.00 | 82 | 1017.7 |
| 20260508121513 | 55 | 34 | 0.0 | 0.9 | 0.00 | 0.09 | 0.00 | 81 | 1017.6 |
| 20260508121029 | 55 | 41 | 0.0 | 0.9 | 0.00 | 0.09 | 0.00 | 82 | 1017.5 |
| 20260508120525 | 54 | 28 | 0.0 | 0.0 | 0.00 | 0.09 | 0.00 | 82 | 1017.5 |
| 20260508120022 | 54 | 360 | 0.0 | 0.0 | 0.00 | 0.09 | 0.00 | 82 | 1017.5 |
| 20260508115522 | 54 | 34 | 0.0 | 0.0 | 0.00 | 0.26 | 0.00 | 83 | 1017.4 |
| 20260508115017 | 53 | 32 | 0.0 | 0.0 | 0.00 | 0.26 | 0.00 | 84 | 1017.3 |
| 20260508114514 | 53 | 29 | 0.0 | 0.0 | 0.00 | 0.26 | 0.00 | 85 | 1017.2 |
| 20260508114030 | 52 | 32 | 0.0 | 0.0 | 0.00 | 0.26 | 0.00 | 86 | 1017.1 |
| 20260508113525 | 52 | 34 | 0.0 | 0.0 | 0.00 | 0.26 | 0.00 | 87 | 1017.0 |
| 20260508113023 | 52 | 30 | 0.0 | 0.0 | 0.00 | 0.26 | 0.00 | 88 | 1017.0 |
| 20260508112518 | 52 | 22 | 0.0 | 0.0 | 0.00 | 0.26 | 0.00 | 90 | 1016.7 |
| 20260508112019 | 51 | 30 | 0.0 | 0.0 | 0.00 | 0.26 | 0.00 | 90 | 1016.7 |
| 20260508111513 | 51 | 25 | 0.0 | 0.0 | 0.00 | 0.26 | 0.00 | 90 | 1016.6 |
| 20260508111030 | 51 | 24 | 0.0 | 0.0 | 0.00 | 0.26 | 0.00 | 91 | 1016.6 |
| 20260508110523 | 51 | 30 | 0.0 | 0.0 | 0.00 | 0.26 | 0.00 | 91 | 1016.4 |
| 20260508110016 | 50 | 27 | 0.0 | 0.0 | 0.00 | 0.26 | 0.00 | 91 | 1016.4 |
| 20260508105512 | 50 | 27 | 0.0 | 0.0 | 0.00 | 0.31 | 0.00 | 91 | 1016.3 |
| 20260508105028 | 50 | 24 | 0.0 | 0.0 | 0.00 | 0.31 | 0.00 | 91 | 1016.3 |
| 20260508104525 | 50 | 24 | 0.0 | 0.0 | 0.00 | 0.31 | 0.00 | 91 | 1016.3 |
| 20260508104026 | 50 | 24 | 0.0 | 0.0 | 0.00 | 0.31 | 0.00 | 91 | 1016.2 |
| 20260508103523 | 50 | 24 | 0.0 | 0.0 | 0.00 | 0.31 | 0.00 | 91 | 1016.0 |
| 20260508103019 | 50 | 24 | 0.0 | 0.0 | 0.00 | 0.31 | 0.00 | 91 | 1015.9 |
| 20260508102514 | 50 | 24 | 0.0 | 0.0 | 0.00 | 0.31 | 0.00 | 91 | 1015.8 |
| 20260508102010 | 50 | 24 | 0.0 | 0.0 | 0.00 | 0.31 | 0.00 | 91 | 1015.7 |
| 20260508101527 | 50 | 24 | 0.0 | 0.0 | 0.00 | 0.31 | 0.00 | 91 | 1015.6 |
| 20260508101022 | 50 | 24 | 0.0 | 0.0 | 0.00 | 0.31 | 0.00 | 91 | 1015.4 |
| 20260508100520 | 50 | 24 | 0.0 | 0.0 | 0.00 | 0.31 | 0.00 | 91 | 1015.4 |
| 20260508100017 | 50 | 24 | 0.0 | 0.0 | 0.00 | 0.31 | 0.00 | 91 | 1015.4 |
| 20260508095513 | 50 | 24 | 0.0 | 0.0 | 0.00 | 0.32 | 0.00 | 91 | 1015.2 |
| 20260508095029 | 50 | 24 | 0.0 | 0.0 | 0.00 | 0.32 | 0.00 | 91 | 1015.2 |
| 20260508094522 | 50 | 24 | 0.0 | 0.0 | 0.00 | 0.32 | 0.00 | 91 | 1015.1 |
| 20260508094018 | 50 | 24 | 0.0 | 0.0 | 0.00 | 0.32 | 0.00 | 91 | 1015.1 |
| 20260508093511 | 50 | 24 | 0.0 | 0.0 | 0.00 | 0.32 | 0.00 | 91 | 1015.1 |
| 20260508093030 | 50 | 24 | 0.0 | 0.0 | 0.00 | 0.32 | 0.00 | 91 | 1015.2 |
| 20260508092526 | 50 | 24 | 0.0 | 0.0 | 0.00 | 0.32 | 0.00 | 91 | 1015.2 |
| 20260508092022 | 50 | 24 | 0.0 | 0.0 | 0.00 | 0.32 | 0.00 | 91 | 1015.1 |
| 20260508091518 | 50 | 24 | 0.0 | 0.0 | 0.00 | 0.32 | 0.00 | 91 | 1015.1 |
| 20260508091011 | 50 | 24 | 0.0 | 0.0 | 0.00 | 0.32 | 0.00 | 91 | 1014.9 |
| 20260508090527 | 50 | 24 | 0.0 | 0.0 | 0.00 | 0.32 | 0.00 | 91 | 1014.9 |
| 20260508090024 | 50 | 24 | 0.0 | 0.0 | 0.00 | 0.32 | 0.00 | 91 | 1015.0 |
| 20260508085523 | 50 | 24 | 0.0 | 0.0 | 0.00 | 0.48 | 0.00 | 91 | 1015.1 |
| 20260508085019 | 50 | 24 | 0.0 | 0.0 | 0.00 | 0.48 | 0.00 | 91 | 1015.1 |
| 20260508084515 | 50 | 24 | 0.0 | 0.0 | 0.00 | 0.48 | 0.00 | 91 | 1015.0 |
| 20260508084011 | 50 | 24 | 0.0 | 0.0 | 0.00 | 0.48 | 0.00 | 91 | 1014.9 |
| 20260508083527 | 51 | 24 | 0.0 | 0.0 | 0.00 | 0.48 | 0.00 | 90 | 1014.8 |
| 20260508083024 | 51 | 24 | 0.0 | 0.0 | 0.00 | 0.48 | 0.00 | 90 | 1014.7 |
| 20260508082519 | 51 | 24 | 0.0 | 0.0 | 0.00 | 0.48 | 0.00 | 90 | 1014.8 |
| 20260508082019 | 51 | 24 | 0.0 | 0.0 | 0.00 | 0.48 | 0.00 | 90 | 1014.9 |
| 20260508081515 | 51 | 24 | 0.0 | 0.0 | 0.00 | 0.48 | 0.00 | 90 | 1014.7 |
| 20260508081011 | 51 | 24 | 0.0 | 0.0 | 0.00 | 0.48 | 0.00 | 90 | 1014.7 |
| 20260508080527 | 51 | 24 | 0.0 | 0.0 | 0.00 | 0.48 | 0.00 | 90 | 1014.8 |
| 20260508080024 | 51 | 24 | 0.0 | 0.0 | 0.00 | 0.48 | 0.00 | 90 | 1014.8 |
| 20260508075519 | 51 | 24 | 0.0 | 0.0 | 0.00 | 0.59 | 0.00 | 89 | 1014.7 |
| 20260508075015 | 51 | 24 | 0.0 | 0.0 | 0.00 | 0.59 | 0.00 | 89 | 1014.8 |
| 20260508074515 | 51 | 24 | 0.0 | 0.0 | 0.00 | 0.59 | 0.00 | 89 | 1014.7 |
| 20260508074032 | 51 | 24 | 0.0 | 0.0 | 0.00 | 0.59 | 0.00 | 89 | 1014.7 |
| 20260508073526 | 51 | 24 | 0.0 | 0.0 | 0.00 | 0.59 | 0.00 | 89 | 1014.6 |
| 20260508073021 | 51 | 24 | 0.0 | 0.0 | 0.00 | 0.59 | 0.00 | 89 | 1014.6 |
| 20260508072516 | 51 | 24 | 0.0 | 0.0 | 0.00 | 0.59 | 0.00 | 89 | 1014.7 |
| 20260508072013 | 51 | 24 | 0.0 | 0.0 | 0.00 | 0.59 | 0.00 | 89 | 1014.8 |
| 20260508071528 | 51 | 24 | 0.0 | 0.0 | 0.00 | 0.59 | 0.00 | 88 | 1014.7 |
| 20260508071025 | 51 | 24 | 0.0 | 0.0 | 0.00 | 0.59 | 0.00 | 88 | 1014.6 |
| 20260508070525 | 52 | 24 | 0.0 | 0.0 | 0.00 | 0.59 | 0.00 | 88 | 1014.5 |
| 20260508070021 | 52 | 24 | 0.0 | 0.0 | 0.00 | 0.59 | 0.00 | 88 | 1014.4 |
| 20260508065516 | 52 | 24 | 0.0 | 0.0 | 0.00 | 0.80 | 0.00 | 88 | 1014.4 |
| 20260508065012 | 52 | 24 | 0.0 | 0.0 | 0.00 | 0.80 | 0.00 | 87 | 1014.3 |
| 20260508064528 | 52 | 24 | 0.0 | 0.0 | 0.00 | 0.80 | 0.00 | 87 | 1014.4 |
| 20260508064024 | 52 | 24 | 0.0 | 0.0 | 0.00 | 0.80 | 0.00 | 87 | 1014.3 |
| 20260508063520 | 52 | 24 | 0.0 | 0.0 | 0.00 | 0.80 | 0.00 | 87 | 1014.3 |
| 20260508063020 | 52 | 24 | 0.0 | 0.0 | 0.00 | 0.80 | 0.00 | 86 | 1014.3 |
| 20260508062516 | 53 | 24 | 0.0 | 0.0 | 0.00 | 0.80 | 0.00 | 86 | 1014.2 |
| 20260508062013 | 53 | 24 | 0.0 | 0.0 | 0.00 | 0.80 | 0.00 | 86 | 1014.2 |
| 20260508061528 | 53 | 24 | 0.0 | 0.0 | 0.00 | 0.80 | 0.00 | 86 | 1014.2 |
| 20260508061024 | 53 | 24 | 0.0 | 0.0 | 0.00 | 0.80 | 0.00 | 85 | 1014.3 |
| 20260508060520 | 53 | 24 | 0.0 | 0.0 | 0.00 | 0.80 | 0.00 | 85 | 1014.5 |
| 20260508060016 | 53 | 24 | 0.0 | 0.0 | 0.00 | 0.80 | 0.00 | 85 | 1014.4 |
| 20260508055516 | 54 | 24 | 0.0 | 0.0 | 0.00 | 1.33 | 0.00 | 85 | 1014.5 |
| 20260508055012 | 54 | 24 | 0.0 | 0.0 | 0.00 | 1.33 | 0.00 | 85 | 1014.4 |
| 20260508054528 | 54 | 24 | 0.0 | 0.0 | 0.00 | 1.33 | 0.00 | 84 | 1014.4 |
| 20260508054024 | 54 | 24 | 0.0 | 0.0 | 0.00 | 1.33 | 0.00 | 84 | 1014.5 |
| 20260508053517 | 54 | 24 | 0.0 | 0.0 | 0.00 | 1.33 | 0.00 | 83 | 1014.5 |
| 20260508053014 | 54 | 24 | 0.0 | 0.0 | 0.00 | 1.33 | 0.00 | 81 | 1014.4 |
| 20260508052529 | 55 | 24 | 0.0 | 0.0 | 0.00 | 1.33 | 0.00 | 81 | 1014.4 |
| 20260508052029 | 55 | 24 | 0.0 | 0.0 | 0.00 | 1.33 | 0.00 | 81 | 1014.4 |
| 20260508051525 | 55 | 24 | 0.0 | 0.0 | 0.00 | 1.33 | 0.00 | 81 | 1014.5 |
| 20260508051021 | 55 | 24 | 0.0 | 0.0 | 0.00 | 1.33 | 0.00 | 80 | 1014.3 |
| 20260508050517 | 56 | 24 | 0.0 | 0.0 | 0.00 | 1.33 | 0.00 | 80 | 1014.3 |
| 20260508050013 | 56 | 24 | 0.0 | 0.0 | 0.00 | 1.33 | 0.00 | 79 | 1014.2 |
| 20260508045529 | 56 | 24 | 0.0 | 0.0 | 0.00 | 1.40 | 0.00 | 79 | 1014.1 |
| 20260508045022 | 56 | 24 | 0.0 | 0.0 | 0.00 | 1.40 | 0.00 | 78 | 1014.1 |
| 20260508044521 | 57 | 24 | 0.0 | 0.0 | 0.00 | 1.40 | 0.00 | 77 | 1014.1 |
| 20260508044017 | 57 | 24 | 0.0 | 0.0 | 0.00 | 1.40 | 0.00 | 77 | 1014.1 |
| 20260508043514 | 57 | 24 | 0.0 | 0.0 | 0.00 | 1.40 | 0.00 | 77 | 1014.0 |
| 20260508043011 | 57 | 24 | 0.0 | 0.0 | 0.00 | 1.40 | 0.00 | 75 | 1013.9 |
| 20260508042526 | 58 | 24 | 0.0 | 0.0 | 0.00 | 1.40 | 0.00 | 74 | 1013.9 |
| 20260508042022 | 58 | 24 | 0.0 | 0.0 | 0.00 | 1.40 | 0.00 | 73 | 1013.8 |
| 20260508041519 | 58 | 24 | 0.0 | 0.0 | 0.00 | 1.40 | 0.00 | 72 | 1013.8 |
| 20260508041019 | 59 | 24 | 0.0 | 0.0 | 0.00 | 1.40 | 0.00 | 71 | 1013.8 |
| 20260508040515 | 59 | 24 | 0.0 | 0.0 | 0.00 | 1.40 | 0.00 | 71 | 1013.8 |
| 20260508040031 | 59 | 24 | 0.0 | 0.0 | 0.00 | 1.40 | 0.00 | 70 | 1014.0 |
| 20260508035526 | 60 | 24 | 0.0 | 0.0 | 0.00 | 1.41 | 1.40 | 70 | 1014.0 |
| 20260508035022 | 60 | 24 | 0.0 | 0.0 | 0.00 | 1.41 | 1.40 | 69 | 1014.0 |
| 20260508034518 | 60 | 24 | 0.0 | 0.0 | 0.00 | 1.41 | 1.40 | 68 | 1013.9 |
| 20260508034014 | 61 | 24 | 0.0 | 0.0 | 0.00 | 1.41 | 1.40 | 68 | 1013.9 |
| 20260508033514 | 61 | 24 | 0.0 | 0.0 | 0.00 | 1.41 | 1.40 | 67 | 1013.9 |
| 20260508033011 | 61 | 24 | 0.0 | 0.0 | 0.00 | 1.41 | 1.40 | 65 | 1013.8 |